Cloud_Cover
69 98 100 100 100 100 100 100 100 99 100 100 100 91 97 45 96 99 100 100 98 100 100 96 97 99 100 45 59 77 58 19 78 93 81 65 56 95 80 15 96 100 100
12 63 100 100 100 100 100 100 100 100 100 100 99 100 96 100 92 100 99 99 100 95 100 98 84 98 100 97 70 33 34 92 64 70 47 54 6 19 0 1 95 100 100
100 100 100 100 100 100 100 100 100 100 100 100 97 100 100 100 100 100 100 100 100 100 100 100 100 100 100 100 100 91 85 100 42 97 98 75 82 85 52 33 46 100 100
100 85 80 94 100 100 100 100 100 100 100 100 100 100 100 100 100 100 100 100 99 100 100 100 100 96 99 99 100 100 100 41 100 100 100 94 100 74 46 7 13 12 5
10 35 65 100 100 100 100 100 100 100 100 100 100 100 100 100 100 100 86 50 62 52 56 96 100 100 100 98 100 100 100 100 100 80 94 98 64 83 98 100 48 75 22
17 84 76 100 100 100 98 98 100 100 100 100 100 100 100 100 100 100 100 100 100 100 100 100 100 99 100 100 100 100 100 100 100 100 100 100 100 100 100 100 88 95 46
55 100 9 86 100 100 100 100 100 100 100 100 100 100 100 100 100 100 100 100 100 100 100 76 23 63 61 100 100 100 100 100 100 100 100 100 100 100 100 100 100 100 100
99 98 68 51 97 100 100 100 100 100 100 100 100 100 100 100 100 100 100 100 100 100 100 81 77 84 100 100 100 100 100 100 100 100 100 100 100 100 100 100 100 100 100
100 100 100 92 100 100 100 100 97 99 99 92 100 100 100 100 100 100 100 100 100 100 97 44 67 97 100 84 21 36 100 100 100 100 100 100 100 100 100 100 100 100 100
100 100 95 83 94 94 100 85 100 100 100 100 100 95 98 100 100 100 100 100 100 100 100 74 31 23 68 16 78 62 60 40 20 34 39 36 78 100 100 100 100 100 100
100 100 100 100 100 100 100 66 79 100 100 100 100 77 93 100 100 100 100 53 40 7 5 5 5 4 35 22 15 6 15 19 16 24 52 53 48 36 56 98 100 100 100
100 100 100 99 73 86 73 40 82 79 97 80 73 98 100 100 100 100 90 82 39 34 8 5 5 4 3 10 5 42 9 14 20 21 45 48 23 46 12 95 100 100 100
100 100 100 100 88 98 51 62 61 88 73 43 9 20 26 54 42 36 9 5 6 35 16 5 5 5 5 5 6 58 22 5 5 19 13 8 49 52 65 96 100 100 100
100 100 100 100 100 100 100 100 75 99 91 7 6 8 45 100 99 86 12 7 34 22 77 62 5 4 0 2 1 16 39 80 13 76 64 55 100 95 88 97 97 100 100
100 100 100 100 100 100 100 100 100 100 100 98 94 99 67 39 37 92 39 7 5 52 82 5 5 2 5 1 5 6 66 16 90 96 97 100 100 100 100 98 97 96 100
100 100 100 100 100 100 100 100 100 100 100 100 94 100 100 100 82 84 56 5 57 32 70 4 0 5 5 4 4 10 48 52 6 77 80 100 96 100 100 99 100 92 100
100 100 100 100 100 100 100 100 100 100 100 100 100 100 100 45 41 30 61 13 5 14 2 0 0 0 3 0 5 5 6 8 54 87 99 100 93 89 92 98 99 100 100
100 100 100 100 100 100 100 100 100 100 100 100 100 100 94 85 5 9 3 5 3 0 5 4 0 0 0 5 5 5 4 5 5 53 99 100 91 96 93 98 97 99 100
100 100 100 100 100 100 100 100 100 100 100 100 100 100 80 14 26 42 7 4 1 2 0 5 89 5 2 0 5 46 76 78 14 39 100 98 93 98 96 97 94 81 100
100 100 100 100 100 100 100 100 100 100 100 100 100 100 100 100 100 74 74 100 5 6 10 5 5 5 9 7 54 94 97 90 100 100 89 99 92 47 80 84 85 80 94
100 100 100 100 100 100 100 100 100 100 100 100 100 100 84 99 100 97 8 5 33 6 5 5 5 5 33 58 84 100 100 100 100 96 85 72 87 92 98 94 91 78 72
100 100 100 100 100 100 100 100 100 100 100 100 100 100 100 100 96 44 5 5 2 4 5 5 5 45 30 52 86 100 100 100 100 99 91 98 82 98 100 99 100 99 72
100 100 100 100 100 100 100 100 100 100 100 100 100 100 98 100 91 54 5 70 16 8 5 5 8 7 34 66 100 100 100 100 100 96 79 99 85 100 98 100 5 49 64
100 100 100 100 100 100 100 100 100 100 100 100 100 100 100 93 100 94 100 100 82 12 20 28 20 5 69 96 100 100 100 100 100 93 91 59 87 100 96 94 5 5 5
100 100 100 100 100 100 100 100 100 100 100 100 100 100 100 100 100 99 100 92 96 94 99 87 28 53 93 100 100 100 100 100 100 97 100 76 99 100 100 99 100 5 5
100 100 100 100 100 100 100 100 100 100 100 91 100 100 100 100 100 100 100 100 100 100 100 100 69 41 79 100 100 100 100 100 100 100 100 89 99 97 100 100 100 100 100